Location: Bartshausen
(51.8454°N, 9.8167°E)
Time: 09:59:59
(UTC+00:00)

Cosmos 2292 Rocket - Pass Details

Date: 08 November 2025
Orbit: 369 x 1243 km, 83.0° (Epoch: 11 December)

Event Time Altitude Azimuth Distance (km) Brightness Sun altitude
Rises 05:20:03 0° 210° (SSW) 2,758 6.7 -10.7°
Reaches altitude 10° 05:22:05 10° 217° (SW) 1,980 5.9 -10.4°
Maximum altitude 05:26:18 43° 290° (WNW) 1,019 4.2 -9.7°
Drops below altitude 10° 05:31:42 10° 2° (N) 2,543 6.6 -8.9°
Sets 05:34:37 0° 8° (N) 3,643 7.4 -8.5°
